Weather in Borshchev

Ukraine / Ternopil District     48°48′04″N   26°02′32″E
temp.,
°C
wind,
m/s
gust,
m/s
humid.,
%
clouds,
%
prec.,
mm/h
press.,
hPa
HPBL,
m
24 may, tue
tue2400:00+8wnw22915 0.0 101313
03:00+7nw11925 0.0 101411
06:00+7ne11915 0.0 101410
09:00+13ese22745 0.0 1014377
12:00+18ese33507 0.0 10141404
15:00+20se4344100 0.0 10131868
18:00+19se4447100 0.0 10131615
21:00+14se2269100 0.0 101412
25 may, wed
wed2500:00+13e3670100 0.0 1015127
03:00+10ese497927 0.0 1016167
06:00+10ese41174100 0.0 1016260
09:00+14se6116898 0.0 1016464
12:00+19sse786181 0.0 10151060
15:00+21sse466041 0.0 10141017
18:00+22sse555783 0.0 10131214
21:00+16se358691 0.8 101482
26 may, thu
thu2600:00+15wsw3595100 1.9 1014108
03:00+14nw71394100 2.8 1016531
06:00+13nw61291100 0.0 1017720
09:00+14nw687712 0.0 1019746
12:00+20nw685315 0.0 10191590
15:00+22nw694180 0.0 10182234
18:00+21nw484990 0.0 10181762
21:00+16wnw226655 0.0 101811
27 may, fri
fri2700:00+16wsw3761100 0.0 1019147
03:00+17wsw4960100 0.0 1018283
06:00+15wnw267098 0.0 1018180
09:00+17wnw136547 0.0 1018267
12:00+22ssw455065 0.0 10151889
15:00+24sw4848100 0.0 10121999
18:00+22wsw4858100 0.0 1010272
21:00+18wsw49733 0.2 1009168
28 may, sat
sat2800:00+10nnw4128896 0.9 1013427
03:00+10w3989100 0.9 1013450
06:00+10wnw3886100 0.0 1013425
09:00+11wnw2681100 0.0 1013611
12:00+13wnw3655100 0.0 10131263
15:00+16wnw4549100 0.0 10121699
18:00+14w3660100 0.0 1014415
21:00+10wnw3782100 0.3 1015223